Time,TemperatureF,DewpointF,PressureIn,WindDirection,WindDirectionDegrees,WindSpeedMPH,WindSpeedGustMPH,Humidity,HourlyPrecipIn,Conditions,Clouds,dailyrainin,SoftwareType,DateUTC
2015-07-29 00:00:00,68.9,61.8,29.71,SSW,212,0.0,2.0,78,0.00,,BKN018,0.00,VWS V14.01,2015-07-29 05:00:00,
2015-07-29 00:05:00,68.8,61.7,29.71,SSW,212,0.0,0.0,78,0.00,,BKN018,0.00,VWS V14.01,2015-07-29 05:05:00,
2015-07-29 00:11:00,68.6,61.5,29.71,SW,214,0.0,0.0,78,0.00,,BKN018,0.00,VWS V14.01,2015-07-29 05:11:00,
2015-07-29 00:16:00,68.4,61.3,29.71,SW,216,0.0,1.0,78,0.00,,BKN018,0.00,VWS V14.01,2015-07-29 05:16:00,
2015-07-29 00:21:00,68.4,61.3,29.71,WSW,247,0.0,2.0,78,0.00,,BKN018,0.00,VWS V14.01,2015-07-29 05:21:00,
2015-07-29 00:26:00,68.3,60.8,29.71,WSW,252,1.0,2.0,77,0.00,,BKN018,0.00,VWS V14.01,2015-07-29 05:26:00,
2015-07-29 00:31:00,68.4,60.5,29.71,WSW,247,1.0,1.0,76,0.00,,BKN018,0.00,VWS V14.01,2015-07-29 05:31:00,
2015-07-29 00:36:00,68.6,60.4,29.71,West,263,2.0,6.0,75,0.00,,BKN018,0.00,VWS V14.01,2015-07-29 05:36:00,
2015-07-29 00:41:00,68.8,60.6,29.71,West,260,1.0,6.0,75,0.00,,BKN018,0.00,VWS V14.01,2015-07-29 05:41:00,
2015-07-29 00:46:00,68.8,60.6,29.71,WSW,245,3.0,6.0,75,0.00,,BKN018,0.00,VWS V14.01,2015-07-29 05:46:00,
2015-07-29 00:51:00,68.8,60.6,29.71,WSW,242,2.0,6.0,75,0.00,,BKN018,0.00,VWS V14.01,2015-07-29 05:51:00,
2015-07-29 00:56:00,68.6,60.4,29.71,WSW,256,0.0,7.0,75,0.00,,BKN018,0.00,VWS V14.01,2015-07-29 05:56:00,
2015-07-29 01:01:00,68.4,60.2,29.71,WSW,252,0.0,2.0,75,0.00,,BKN018,0.00,VWS V14.01,2015-07-29 06:01:00,
2015-07-29 01:06:00,68.4,60.2,29.71,WSW,240,1.0,5.0,75,0.00,,BKN018,0.00,VWS V14.01,2015-07-29 06:06:00,
2015-07-29 01:11:00,68.3,60.5,29.71,WSW,249,0.0,6.0,76,0.00,,BKN018,0.00,VWS V14.01,2015-07-29 06:11:00,
2015-07-29 01:16:00,68.1,60.3,29.71,WSW,257,0.0,6.0,76,0.00,,BKN018,0.00,VWS V14.01,2015-07-29 06:16:00,
2015-07-29 01:21:00,67.9,60.1,29.71,WSW,257,1.0,6.0,76,0.00,,BKN018,0.00,VWS V14.01,2015-07-29 06:21:00,
2015-07-29 01:26:00,67.9,60.1,29.71,WSW,254,1.0,6.0,76,0.00,,BKN018,0.00,VWS V14.01,2015-07-29 06:26:00,
2015-07-29 01:31:00,67.8,59.6,29.71,West,262,1.0,3.0,75,0.00,,BKN018,0.00,VWS V14.01,2015-07-29 06:31:00,
2015-07-29 01:36:00,67.8,59.6,29.71,West,260,1.0,4.0,75,0.00,,BKN018,0.00,VWS V14.01,2015-07-29 06:36:00,
2015-07-29 01:41:00,67.6,59.8,29.71,WSW,247,1.0,4.0,76,0.00,,BKN018,0.00,VWS V14.01,2015-07-29 06:41:00,
2015-07-29 01:46:00,67.6,59.8,29.71,South,188,1.0,4.0,76,0.00,,BKN018,0.00,VWS V14.01,2015-07-29 06:46:00,
2015-07-29 01:51:00,67.4,60.3,29.71,SSW,202,0.0,4.0,78,0.00,,BKN018,0.00,VWS V14.01,2015-07-29 06:51:00,
2015-07-29 01:56:00,67.3,60.2,29.71,SSW,202,1.0,4.0,78,0.00,,BKN018,0.00,VWS V14.01,2015-07-29 06:56:00,
2015-07-29 02:01:00,66.9,60.2,29.71,SSW,211,0.0,2.0,79,0.00,,BKN018,0.00,VWS V14.01,2015-07-29 07:01:00,
2015-07-29 02:06:00,66.6,59.9,29.71,SW,219,2.0,3.0,79,0.00,,BKN018,0.00,VWS V14.01,2015-07-29 07:06:00,
2015-07-29 02:11:00,66.4,59.7,29.71,SW,229,1.0,6.0,79,0.00,,BKN018,0.00,VWS V14.01,2015-07-29 07:11:00,
2015-07-29 02:16:00,66.4,59.3,29.71,SW,225,0.0,6.0,78,0.00,,BKN018,0.00,VWS V14.01,2015-07-29 07:16:00,
2015-07-29 02:21:00,66.4,58.6,29.71,WSW,243,2.0,6.0,76,0.00,,BKN018,0.00,VWS V14.01,2015-07-29 07:21:00,
2015-07-29 02:26:00,66.6,58.8,29.71,WSW,240,1.0,6.0,76,0.00,,BKN018,0.00,VWS V14.01,2015-07-29 07:26:00,
2015-07-29 02:31:00,66.4,58.6,29.71,WSW,246,1.0,3.0,76,0.00,,BKN018,0.00,VWS V14.01,2015-07-29 07:31:00,
2015-07-29 02:41:00,66.3,58.9,29.71,WSW,249,0.0,3.0,77,0.00,,BKN018,0.00,VWS V14.01,2015-07-29 07:41:00,
2015-07-29 02:46:00,66.0,57.9,29.70,SW,236,0.0,5.0,75,0.00,,BKN018,0.00,VWS V14.01,2015-07-29 07:46:00,
2015-07-29 03:01:00,65.8,57.3,29.70,WSW,240,0.0,2.0,74,0.00,,BKN018,0.00,VWS V14.01,2015-07-29 08:01:00,
2015-07-29 03:06:00,65.6,57.1,29.70,WSW,246,1.0,3.0,74,0.00,,BKN018,0.00,VWS V14.01,2015-07-29 08:06:00,
2015-07-29 03:12:00,65.6,57.1,29.70,WSW,238,1.0,6.0,74,0.00,,BKN018,0.00,VWS V14.01,2015-07-29 08:12:00,
2015-07-29 03:17:00,65.5,56.6,29.70,WSW,256,2.0,6.0,73,0.00,,BKN018,0.00,VWS V14.01,2015-07-29 08:17:00,
2015-07-29 03:22:00,65.5,56.6,29.70,WSW,242,0.0,6.0,73,0.00,,BKN018,0.00,VWS V14.01,2015-07-29 08:22:00,
2015-07-29 03:27:00,65.3,56.8,29.70,SW,232,0.0,6.0,74,0.00,,BKN018,0.00,VWS V14.01,2015-07-29 08:27:00,
2015-07-29 03:32:00,65.2,57.1,29.70,SW,223,1.0,5.0,75,0.00,,BKN018,0.00,VWS V14.01,2015-07-29 08:32:00,
2015-07-29 03:37:00,65.0,56.9,29.70,SW,222,3.0,5.0,75,0.00,,BKN018,0.00,VWS V14.01,2015-07-29 08:37:00,
2015-07-29 03:47:00,64.7,56.6,29.70,WSW,246,1.0,6.0,75,0.00,,BKN018,0.00,VWS V14.01,2015-07-29 08:47:00,
2015-07-29 03:52:00,64.5,56.4,29.70,SW,232,0.0,6.0,75,0.00,,BKN018,0.00,VWS V14.01,2015-07-29 08:52:00,
2015-07-29 03:57:00,64.3,56.6,29.70,WSW,242,0.0,6.0,76,0.00,,BKN018,0.00,VWS V14.01,2015-07-29 08:57:00,
2015-07-29 04:02:00,64.2,56.5,29.70,WSW,246,1.0,2.0,76,0.00,,BKN018,0.00,VWS V14.01,2015-07-29 09:02:00,
2015-07-29 04:07:00,64.2,56.5,29.70,SW,214,0.0,6.0,76,0.00,,BKN018,0.00,VWS V14.01,2015-07-29 09:07:00,
2015-07-29 04:12:00,64.0,56.7,29.70,WSW,250,0.0,8.0,77,0.00,,BKN018,0.00,VWS V14.01,2015-07-29 09:12:00,
2015-07-29 04:17:00,64.0,56.7,29.70,West,264,2.0,8.0,77,0.00,,BKN018,0.00,VWS V14.01,2015-07-29 09:17:00,
2015-07-29 04:22:00,63.9,56.6,29.70,WSW,246,2.0,11.0,77,0.00,,BKN018,0.00,VWS V14.01,2015-07-29 09:22:00,
2015-07-29 04:27:00,63.9,56.6,29.70,WSW,247,2.0,11.0,77,0.00,,BKN018,0.00,VWS V14.01,2015-07-29 09:27:00,
2015-07-29 04:32:00,63.9,56.6,29.70,WSW,257,0.0,3.0,77,0.00,,BKN018,0.00,VWS V14.01,2015-07-29 09:32:00,
2015-07-29 04:37:00,63.9,56.2,29.70,WSW,245,3.0,9.0,76,0.00,,BKN018,0.00,VWS V14.01,2015-07-29 09:37:00,
2015-07-29 04:42:00,63.9,56.2,29.70,WSW,243,0.0,9.0,76,0.00,,BKN018,0.00,VWS V14.01,2015-07-29 09:42:00,
2015-07-29 04:47:00,63.9,56.2,29.70,West,267,2.0,9.0,76,0.00,,BKN018,0.00,VWS V14.01,2015-07-29 09:47:00,
2015-07-29 04:52:00,63.7,56.0,29.70,WSW,245,2.0,9.0,76,0.00,,BKN018,0.00,VWS V14.01,2015-07-29 09:52:00,
2015-07-29 04:57:00,63.7,55.6,29.70,West,264,0.0,9.0,75,0.00,,BKN018,0.00,VWS V14.01,2015-07-29 09:57:00,
2015-07-29 05:02:00,63.4,55.7,29.71,WSW,245,0.0,3.0,76,0.00,,BKN018,0.00,VWS V14.01,2015-07-29 10:02:00,
2015-07-29 05:07:00,63.4,55.3,29.71,WSW,250,2.0,6.0,75,0.00,,BKN018,0.00,VWS V14.01,2015-07-29 10:07:00,
2015-07-29 05:12:00,63.2,55.2,29.71,WSW,247,3.0,7.0,75,0.00,,BKN018,0.00,VWS V14.01,2015-07-29 10:12:00,
2015-07-29 05:17:00,63.2,55.2,29.72,WSW,245,1.0,7.0,75,0.00,,BKN018,0.00,VWS V14.01,2015-07-29 10:17:00,
2015-07-29 05:22:00,63.4,54.6,29.72,WSW,243,1.0,10.0,73,0.00,,BKN018,0.00,VWS V14.01,2015-07-29 10:22:00,
2015-07-29 05:27:00,63.5,54.3,29.72,West,260,10.0,10.0,72,0.00,,BKN018,0.00,VWS V14.01,2015-07-29 10:27:00,
2015-07-29 05:32:00,63.9,54.3,29.72,West,270,0.0,8.0,71,0.00,,BKN018,0.00,VWS V14.01,2015-07-29 10:32:00,
2015-07-29 05:37:00,63.9,53.9,29.72,WSW,240,1.0,10.0,70,0.00,,BKN018,0.00,VWS V14.01,2015-07-29 10:37:00,
2015-07-29 05:42:00,63.7,53.7,29.72,WSW,242,0.0,10.0,70,0.00,,BKN018,0.00,VWS V14.01,2015-07-29 10:42:00,
2015-07-29 05:47:00,63.7,53.7,29.72,WSW,256,7.0,10.0,70,0.00,,BKN018,0.00,VWS V14.01,2015-07-29 10:47:00,
2015-07-29 05:52:00,63.5,53.5,29.72,WSW,247,5.0,10.0,70,0.00,,BKN018,0.00,VWS V14.01,2015-07-29 10:52:00,
2015-07-29 05:57:00,63.5,53.5,29.72,WSW,247,7.0,10.0,70,0.00,,BKN018,0.00,VWS V14.01,2015-07-29 10:57:00,
2015-07-29 06:02:00,63.4,53.5,29.72,West,267,0.0,7.0,70,0.00,,BKN018,0.00,VWS V14.01,2015-07-29 11:02:00,
2015-07-29 06:07:00,63.2,52.9,29.72,West,259,3.0,7.0,69,0.00,,BKN018,0.00,VWS V14.01,2015-07-29 11:07:00,
2015-07-29 06:13:00,63.4,53.1,29.72,West,273,6.0,10.0,69,0.00,,BKN018,0.00,VWS V14.01,2015-07-29 11:13:00,
2015-07-29 06:18:00,63.2,53.3,29.73,WSW,243,0.0,10.0,70,0.00,,BKN018,0.00,VWS V14.01,2015-07-29 11:18:00,
2015-07-29 06:28:00,63.2,52.9,29.73,WSW,250,1.0,11.0,69,0.00,,BKN018,0.00,VWS V14.01,2015-07-29 11:28:00,
2015-07-29 06:33:00,63.2,52.9,29.73,WSW,247,2.0,10.0,69,0.00,,BKN018,0.00,VWS V14.01,2015-07-29 11:33:00,
2015-07-29 06:38:00,63.2,52.9,29.73,West,262,6.0,10.0,69,0.00,,BKN018,0.00,VWS V14.01,2015-07-29 11:38:00,
2015-07-29 06:43:00,63.2,52.5,29.73,WSW,252,0.0,10.0,68,0.00,,BKN018,0.00,VWS V14.01,2015-07-29 11:43:00,
2015-07-29 06:48:00,63.2,52.5,29.73,SW,228,1.0,10.0,68,0.00,,BKN018,0.00,VWS V14.01,2015-07-29 11:48:00,
2015-07-29 06:53:00,63.4,51.9,29.73,West,270,6.0,12.0,66,0.00,,BKN018,0.00,VWS V14.01,2015-07-29 11:53:00,
2015-07-29 06:58:00,63.7,51.7,29.73,WSW,256,4.0,12.0,65,0.00,,BKN018,0.00,VWS V14.01,2015-07-29 11:58:00,
2015-07-29 07:03:00,63.9,51.9,29.73,West,264,3.0,6.0,65,0.00,,BKN018,0.00,VWS V14.01,2015-07-29 12:03:00,
2015-07-29 07:08:00,64.0,51.6,29.73,WSW,253,2.0,11.0,64,0.00,,BKN018,0.00,VWS V14.01,2015-07-29 12:08:00,
2015-07-29 07:13:00,64.5,51.6,29.73,West,260,8.0,11.0,63,0.00,,BKN018,0.00,VWS V14.01,2015-07-29 12:13:00,
2015-07-29 07:23:00,65.0,51.2,29.73,WSW,245,6.0,11.0,61,0.00,,BKN018,0.00,VWS V14.01,2015-07-29 12:23:00,
2015-07-29 07:28:00,65.5,51.7,29.73,WSW,247,11.0,11.0,61,0.00,,BKN018,0.00,VWS V14.01,2015-07-29 12:28:00,
2015-07-29 07:33:00,65.6,51.4,29.74,West,266,2.0,11.0,60,0.00,,BKN018,0.00,VWS V14.01,2015-07-29 12:33:00,
2015-07-29 07:38:00,65.8,51.5,29.74,West,262,0.0,11.0,60,0.00,,BKN018,0.00,VWS V14.01,2015-07-29 12:38:00,
2015-07-29 07:43:00,66.0,51.7,29.74,WSW,243,6.0,13.0,60,0.00,,BKN018,0.00,VWS V14.01,2015-07-29 12:43:00,
2015-07-29 07:48:00,66.0,52.2,29.73,SW,235,10.0,13.0,61,0.00,,BKN018,0.00,VWS V14.01,2015-07-29 12:48:00,
2015-07-29 07:53:00,66.1,51.8,29.73,West,263,10.0,13.0,60,0.00,,BKN018,0.00,VWS V14.01,2015-07-29 12:53:00,
2015-07-29 07:58:00,66.3,52.0,29.73,West,267,3.0,13.0,60,0.00,,BKN018,0.00,VWS V14.01,2015-07-29 12:58:00,
2015-07-29 08:03:00,66.4,52.1,29.74,WNW,290,7.0,11.0,60,0.00,,BKN018,0.00,VWS V14.01,2015-07-29 13:03:00,
2015-07-29 08:08:00,66.6,52.8,29.74,West,264,1.0,11.0,61,0.00,,BKN018,0.00,VWS V14.01,2015-07-29 13:08:00,
2015-07-29 08:13:00,66.8,52.9,29.74,WNW,284,8.0,11.0,61,0.00,,BKN018,0.00,VWS V14.01,2015-07-29 13:13:00,
2015-07-29 08:18:00,66.9,52.6,29.74,West,270,8.0,11.0,60,0.00,,BKN018,0.00,VWS V14.01,2015-07-29 13:18:00,
2015-07-29 08:23:00,67.1,52.8,29.74,West,263,0.0,11.0,60,0.00,,BKN018,0.00,VWS V14.01,2015-07-29 13:23:00,
2015-07-29 08:28:00,67.3,53.0,29.74,WSW,252,10.0,11.0,60,0.00,,BKN018,0.00,VWS V14.01,2015-07-29 13:28:00,
2015-07-29 08:33:00,67.6,52.8,29.74,West,264,2.0,9.0,59,0.00,,BKN018,0.00,VWS V14.01,2015-07-29 13:33:00,
2015-07-29 08:38:00,67.8,53.4,29.74,WSW,243,12.0,12.0,60,0.00,,BKN018,0.00,VWS V14.01,2015-07-29 13:38:00,
2015-07-29 08:43:00,68.1,53.2,29.74,WSW,243,5.0,16.0,59,0.00,,BKN018,0.00,VWS V14.01,2015-07-29 13:43:00,
2015-07-29 08:48:00,68.3,53.0,29.74,West,267,0.0,16.0,58,0.00,,BKN018,0.00,VWS V14.01,2015-07-29 13:48:00,
2015-07-29 08:53:00,68.4,54.0,29.74,West,263,2.0,16.0,60,0.00,,BKN018,0.00,VWS V14.01,2015-07-29 13:53:00,
2015-07-29 08:59:00,68.8,53.4,29.74,West,269,5.0,16.0,58,0.00,,BKN018,0.00,VWS V14.01,2015-07-29 13:59:00,
2015-07-29 09:04:00,69.1,53.2,29.74,West,260,3.0,11.0,57,0.00,,BKN018,0.00,VWS V14.01,2015-07-29 14:04:00,
2015-07-29 09:09:00,69.3,53.4,29.74,West,270,7.0,16.0,57,0.00,,BKN018,0.00,VWS V14.01,2015-07-29 14:09:00,
2015-07-29 09:14:00,69.6,54.2,29.74,WSW,256,4.0,16.0,58,0.00,,BKN018,0.00,VWS V14.01,2015-07-29 14:14:00,
2015-07-29 09:19:00,69.6,54.2,29.74,West,263,5.0,16.0,58,0.00,,BKN018,0.00,VWS V14.01,2015-07-29 14:19:00,
2015-07-29 09:24:00,69.9,54.0,29.74,West,262,5.0,16.0,57,0.00,,BKN018,0.00,VWS V14.01,2015-07-29 14:24:00,
2015-07-29 09:29:00,70.3,54.4,29.74,West,259,3.0,16.0,57,0.00,,BKN018,0.00,VWS V14.01,2015-07-29 14:29:00,
2015-07-29 09:34:00,70.4,54.5,29.74,WSW,247,0.0,11.0,57,0.00,,BKN018,0.00,VWS V14.01,2015-07-29 14:34:00,
2015-07-29 09:39:00,70.8,54.3,29.74,West,263,2.0,14.0,56,0.00,,BKN018,0.00,VWS V14.01,2015-07-29 14:39:00,
2015-07-29 09:44:00,70.9,54.9,29.74,West,263,3.0,14.0,57,0.00,,BKN018,0.00,VWS V14.01,2015-07-29 14:44:00,
2015-07-29 09:49:00,71.3,55.3,29.74,West,260,1.0,14.0,57,0.00,,BKN018,0.00,VWS V14.01,2015-07-29 14:49:00,
2015-07-29 09:54:00,71.6,55.6,29.74,WSW,254,4.0,14.0,57,0.00,,BKN018,0.00,VWS V14.01,2015-07-29 14:54:00,
2015-07-29 09:59:00,71.8,55.8,29.74,WSW,246,6.0,14.0,57,0.00,,BKN018,0.00,VWS V14.01,2015-07-29 14:59:00,
2015-07-29 10:04:00,72.0,55.0,29.74,West,267,2.0,12.0,55,0.00,,BKN018,0.00,VWS V14.01,2015-07-29 15:04:00,
2015-07-29 10:09:00,72.3,56.2,29.74,WSW,247,2.0,12.0,57,0.00,,BKN018,0.00,VWS V14.01,2015-07-29 15:09:00,
2015-07-29 10:14:00,72.7,56.1,29.74,West,270,0.0,12.0,56,0.00,,BKN018,0.00,VWS V14.01,2015-07-29 15:14:00,
2015-07-29 10:19:00,73.0,55.4,29.73,WNW,294,8.0,16.0,54,0.00,,BKN018,0.00,VWS V14.01,2015-07-29 15:19:00,
2015-07-29 10:24:00,73.2,54.5,29.73,West,273,8.0,19.0,52,0.00,,BKN018,0.00,VWS V14.01,2015-07-29 15:24:00,
2015-07-29 10:29:00,73.5,54.3,29.73,West,277,17.0,19.0,51,0.00,,BKN018,0.00,VWS V14.01,2015-07-29 15:29:00,
2015-07-29 10:34:00,73.5,53.7,29.73,WSW,256,11.0,20.0,50,0.00,,BKN018,0.00,VWS V14.01,2015-07-29 15:34:00,
2015-07-29 10:44:00,73.9,54.1,29.73,WSW,253,7.0,20.0,50,0.00,,BKN018,0.00,VWS V14.01,2015-07-29 15:44:00,
2015-07-29 10:49:00,73.9,54.1,29.73,West,270,0.0,25.0,50,0.00,,BKN018,0.00,VWS V14.01,2015-07-29 15:49:00,
2015-07-29 10:54:00,74.0,56.3,29.73,WNW,294,7.0,25.0,54,0.00,,BKN018,0.00,VWS V14.01,2015-07-29 15:54:00,
2015-07-29 10:59:00,74.4,55.7,29.73,WSW,253,6.0,25.0,52,0.00,,BKN018,0.00,VWS V14.01,2015-07-29 15:59:00,
2015-07-29 11:04:00,74.4,54.6,29.74,West,270,11.0,19.0,50,0.00,,BKN018,0.00,VWS V14.01,2015-07-29 16:04:00,
2015-07-29 11:09:00,74.2,56.0,29.74,West,270,5.0,19.0,53,0.00,,BKN018,0.00,VWS V14.01,2015-07-29 16:09:00,
2015-07-29 11:14:00,74.6,57.4,29.74,West,281,7.0,19.0,55,0.00,,BKN018,0.00,VWS V14.01,2015-07-29 16:14:00,
2015-07-29 11:19:00,74.7,54.8,29.74,WSW,250,11.0,28.0,50,0.00,,BKN018,0.00,VWS V14.01,2015-07-29 16:19:00,
2015-07-29 11:24:00,74.6,54.8,29.74,West,273,18.0,28.0,50,0.00,,BKN018,0.00,VWS V14.01,2015-07-29 16:24:00,
2015-07-29 11:34:00,75.1,54.7,29.74,WSW,253,6.0,17.0,49,0.00,,BKN018,0.00,VWS V14.01,2015-07-29 16:34:00,
2015-07-29 11:39:00,75.3,54.3,29.74,WSW,253,14.0,17.0,48,0.00,,BKN018,0.00,VWS V14.01,2015-07-29 16:39:00,
2015-07-29 11:44:00,75.4,56.0,29.74,WSW,256,7.0,17.0,51,0.00,,BKN018,0.00,VWS V14.01,2015-07-29 16:44:00,
2015-07-29 11:49:00,75.8,55.9,29.75,West,280,6.0,20.0,50,0.00,,BKN018,0.00,VWS V14.01,2015-07-29 16:49:00,
2015-07-29 11:54:00,75.8,55.9,29.75,West,270,8.0,28.0,50,0.00,,BKN018,0.00,VWS V14.01,2015-07-29 16:54:00,
2015-07-29 11:59:00,76.0,56.6,29.75,West,270,3.0,28.0,51,0.00,,BKN018,0.00,VWS V14.01,2015-07-29 16:59:00,
2015-07-29 12:05:00,76.1,55.6,29.74,West,269,1.0,22.0,49,0.00,,BKN018,0.00,VWS V14.01,2015-07-29 17:05:00,
2015-07-29 12:10:00,76.1,55.0,29.74,West,270,7.0,22.0,48,0.00,,BKN018,0.00,VWS V14.01,2015-07-29 17:10:00,
2015-07-29 12:15:00,76.3,55.8,29.74,West,270,7.0,22.0,49,0.00,,BKN018,0.00,VWS V14.01,2015-07-29 17:15:00,
2015-07-29 12:20:00,76.5,55.9,29.75,West,281,11.0,22.0,49,0.00,,BKN018,0.00,VWS V14.01,2015-07-29 17:20:00,
2015-07-29 12:25:00,76.7,56.7,29.75,WNW,288,8.0,22.0,50,0.00,,BKN018,0.00,VWS V14.01,2015-07-29 17:25:00,
2015-07-29 12:30:00,76.7,54.4,29.75,West,270,22.0,22.0,46,0.00,,BKN018,0.00,VWS V14.01,2015-07-29 17:30:00,
2015-07-29 12:35:00,76.7,55.0,29.75,WNW,283,17.0,26.0,47,0.00,,BKN018,0.00,VWS V14.01,2015-07-29 17:35:00,
2015-07-29 12:40:00,76.7,56.7,29.75,West,266,5.0,26.0,50,0.00,,BKN018,0.00,VWS V14.01,2015-07-29 17:40:00,
2015-07-29 12:45:00,76.8,55.7,29.74,WSW,240,3.0,26.0,48,0.00,,BKN018,0.00,VWS V14.01,2015-07-29 17:45:00,
2015-07-29 13:00:00,77.4,56.8,29.74,WNW,290,2.0,26.0,49,0.00,,BKN018,0.00,VWS V14.01,2015-07-29 18:00:00,
2015-07-29 13:05:00,77.6,56.4,29.74,NW,307,14.0,18.0,48,0.00,,BKN018,0.00,VWS V14.01,2015-07-29 18:05:00,
2015-07-29 13:10:00,77.6,56.4,29.74,West,274,7.0,29.0,48,0.00,,BKN018,0.00,VWS V14.01,2015-07-29 18:10:00,
2015-07-29 13:15:00,77.7,54.7,29.74,WSW,238,8.0,29.0,45,0.00,,BKN018,0.00,VWS V14.01,2015-07-29 18:15:00,
2015-07-29 13:20:00,77.7,57.0,29.74,West,259,2.0,29.0,49,0.00,,BKN018,0.00,VWS V14.01,2015-07-29 18:20:00,
2015-07-29 13:25:00,77.9,56.1,29.74,West,266,15.0,29.0,47,0.00,,BKN018,0.00,VWS V14.01,2015-07-29 18:25:00,
2015-07-29 13:30:00,78.1,57.4,29.75,West,263,8.0,29.0,49,0.00,,BKN018,0.00,VWS V14.01,2015-07-29 18:30:00,
2015-07-29 13:35:00,78.1,55.7,29.75,West,267,14.0,19.0,46,0.00,,BKN018,0.00,VWS V14.01,2015-07-29 18:35:00,
2015-07-29 13:40:00,78.3,56.4,29.75,North,2,1.0,27.0,47,0.00,,BKN018,0.00,VWS V14.01,2015-07-29 18:40:00,
2015-07-29 13:45:00,78.6,57.3,29.74,West,270,6.0,27.0,48,0.00,,BKN018,0.00,VWS V14.01,2015-07-29 18:45:00,
2015-07-29 13:50:00,78.8,55.7,29.74,West,277,12.0,27.0,45,0.00,,BKN018,0.00,VWS V14.01,2015-07-29 18:50:00,
2015-07-29 13:55:00,78.6,55.5,29.74,WNW,298,7.0,27.0,45,0.00,,BKN018,0.00,VWS V14.01,2015-07-29 18:55:00,
2015-07-29 14:00:00,78.8,56.3,29.74,WNW,300,10.0,27.0,46,0.00,,BKN018,0.00,VWS V14.01,2015-07-29 19:00:00,
2015-07-29 14:05:00,78.8,53.8,29.74,West,281,8.0,27.0,42,0.00,,BKN018,0.00,VWS V14.01,2015-07-29 19:05:00,
2015-07-29 14:10:00,78.8,54.4,29.74,NW,319,6.0,27.0,43,0.00,,BKN018,0.00,VWS V14.01,2015-07-29 19:10:00,
2015-07-29 14:15:00,79.2,57.2,29.74,WNW,291,8.0,27.0,47,0.00,,BKN018,0.00,VWS V14.01,2015-07-29 19:15:00,
2015-07-29 14:20:00,79.4,55.0,29.74,WNW,284,18.0,27.0,43,0.00,,BKN018,0.00,VWS V14.01,2015-07-29 19:20:00,
2015-07-29 14:25:00,79.2,55.4,29.74,SW,225,14.0,27.0,44,0.00,,BKN018,0.00,VWS V14.01,2015-07-29 19:25:00,
2015-07-29 14:35:00,79.4,54.3,29.74,WNW,284,21.0,27.0,42,0.00,,BKN018,0.00,VWS V14.01,2015-07-29 19:35:00,
2015-07-29 14:40:00,79.6,55.2,29.74,WNW,300,7.0,27.0,43,0.00,,BKN018,0.00,VWS V14.01,2015-07-29 19:40:00,
2015-07-29 14:45:00,79.6,55.8,29.73,WNW,300,13.0,27.0,44,0.00,,BKN018,0.00,VWS V14.01,2015-07-29 19:45:00,
2015-07-29 14:50:00,79.8,54.0,29.73,West,280,15.0,27.0,41,0.00,,BKN018,0.00,VWS V14.01,2015-07-29 19:50:00,
2015-07-29 14:55:00,79.8,54.7,29.73,West,262,17.0,27.0,42,0.00,,BKN018,0.00,VWS V14.01,2015-07-29 19:55:00,
2015-07-29 15:01:00,79.9,54.1,29.73,West,274,6.0,27.0,41,0.00,,BKN018,0.00,VWS V14.01,2015-07-29 20:01:00,
2015-07-29 15:06:00,80.1,54.3,29.73,West,270,13.0,20.0,41,0.00,,BKN018,0.00,VWS V14.01,2015-07-29 20:06:00,
2015-07-29 15:11:00,80.1,54.3,29.73,West,277,12.0,24.0,41,0.00,,BKN018,0.00,VWS V14.01,2015-07-29 20:11:00,
2015-07-29 15:16:00,79.9,53.5,29.73,WNW,293,12.0,24.0,40,0.00,,BKN018,0.00,VWS V14.01,2015-07-29 20:16:00,
2015-07-29 15:21:00,80.1,53.6,29.73,WNW,283,5.0,24.0,40,0.00,,BKN018,0.00,VWS V14.01,2015-07-29 20:21:00,
2015-07-29 15:26:00,80.7,56.8,29.73,West,267,20.0,24.0,44,0.00,,BKN018,0.00,VWS V14.01,2015-07-29 20:26:00,
2015-07-29 15:31:00,80.5,54.0,29.73,West,273,11.0,17.0,40,0.00,,BKN018,0.00,VWS V14.01,2015-07-29 20:31:00,
2015-07-29 15:36:00,80.3,53.8,29.73,WNW,302,8.0,25.0,40,0.00,,BKN018,0.00,VWS V14.01,2015-07-29 20:36:00,
2015-07-29 15:41:00,80.3,53.8,29.73,West,270,6.0,25.0,40,0.00,,BKN018,0.00,VWS V14.01,2015-07-29 20:41:00,
2015-07-29 15:46:00,80.7,54.8,29.74,WNW,288,21.0,25.0,41,0.00,,BKN018,0.00,VWS V14.01,2015-07-29 20:46:00,
2015-07-29 15:51:00,80.9,53.7,29.74,WNW,288,2.0,25.0,39,0.00,,BKN018,0.00,VWS V14.01,2015-07-29 20:51:00,
2015-07-29 15:56:00,80.3,54.5,29.74,West,271,18.0,25.0,41,0.00,,BKN018,0.00,VWS V14.01,2015-07-29 20:56:00,
2015-07-29 16:01:00,80.5,56.0,29.73,West,270,13.0,13.0,43,0.00,,BKN018,0.00,VWS V14.01,2015-07-29 21:01:00,
2015-07-29 16:06:00,80.9,54.3,29.73,West,270,17.0,21.0,40,0.00,,BKN018,0.00,VWS V14.01,2015-07-29 21:06:00,
2015-07-29 16:11:00,80.9,55.0,29.73,WNW,287,7.0,24.0,41,0.00,,BKN018,0.00,VWS V14.01,2015-07-29 21:11:00,
2015-07-29 16:16:00,80.7,54.2,29.73,WSW,256,12.0,27.0,40,0.00,,BKN018,0.00,VWS V14.01,2015-07-29 21:16:00,
2015-07-29 16:21:00,81.1,55.9,29.73,West,271,3.0,27.0,42,0.00,,BKN018,0.00,VWS V14.01,2015-07-29 21:21:00,
2015-07-29 16:26:00,81.1,55.2,29.73,WNW,287,12.0,27.0,41,0.00,,BKN018,0.00,VWS V14.01,2015-07-29 21:26:00,
2015-07-29 16:31:00,80.9,53.7,29.73,West,270,12.0,19.0,39,0.00,,BKN018,0.00,VWS V14.01,2015-07-29 21:31:00,
2015-07-29 16:36:00,81.1,53.8,29.73,WNW,283,6.0,21.0,39,0.00,,BKN018,0.00,VWS V14.01,2015-07-29 21:36:00,
2015-07-29 16:41:00,81.4,54.8,29.73,West,270,13.0,28.0,40,0.00,,BKN018,0.00,VWS V14.01,2015-07-29 21:41:00,
2015-07-29 16:46:00,81.4,52.7,29.73,NW,304,17.0,28.0,37,0.00,,BKN018,0.00,VWS V14.01,2015-07-29 21:46:00,
2015-07-29 16:51:00,81.4,52.7,29.73,WNW,295,7.0,28.0,37,0.00,,BKN018,0.00,VWS V14.01,2015-07-29 21:51:00,
2015-07-29 16:56:00,81.4,52.7,29.73,West,281,21.0,28.0,37,0.00,,BKN018,0.00,VWS V14.01,2015-07-29 21:56:00,
2015-07-29 17:01:00,81.4,51.9,29.73,West,269,3.0,19.0,36,0.00,,BKN018,0.00,VWS V14.01,2015-07-29 22:01:00,
2015-07-29 17:06:00,81.2,52.5,29.73,WSW,257,2.0,24.0,37,0.00,,BKN018,0.00,VWS V14.01,2015-07-29 22:06:00,
2015-07-29 17:16:00,81.4,52.7,29.74,WNW,297,12.0,25.0,37,0.00,,BKN018,0.00,VWS V14.01,2015-07-29 22:16:00,
2015-07-29 17:21:00,81.2,51.7,29.74,WNW,288,17.0,26.0,36,0.00,,BKN018,0.00,VWS V14.01,2015-07-29 22:21:00,
2015-07-29 17:26:00,81.4,53.4,29.74,West,266,10.0,26.0,38,0.00,,BKN018,0.00,VWS V14.01,2015-07-29 22:26:00,
2015-07-29 17:31:00,81.2,52.5,29.73,WNW,290,12.0,22.0,37,0.00,,BKN018,0.00,VWS V14.01,2015-07-29 22:31:00,
2015-07-29 17:36:00,81.6,52.1,29.73,West,269,14.0,22.0,36,0.00,,BKN018,0.00,VWS V14.01,2015-07-29 22:36:00,
2015-07-29 17:41:00,81.4,51.9,29.73,West,278,11.0,22.0,36,0.00,,BKN018,0.00,VWS V14.01,2015-07-29 22:41:00,
2015-07-29 17:46:00,81.1,52.4,29.74,West,270,12.0,22.0,37,0.00,,BKN018,0.00,VWS V14.01,2015-07-29 22:46:00,
2015-07-29 17:51:00,80.9,53.7,29.74,West,270,10.0,22.0,39,0.00,,BKN018,0.00,VWS V14.01,2015-07-29 22:51:00,
2015-07-29 17:57:00,80.9,53.7,29.74,West,270,10.0,22.0,39,0.00,,BKN018,0.00,VWS V14.01,2015-07-29 22:57:00,
2015-07-29 18:02:00,80.9,53.7,29.73,West,270,4.0,10.0,39,0.00,,BKN018,0.00,VWS V14.01,2015-07-29 23:02:00,
2015-07-29 18:07:00,80.9,54.3,29.73,West,270,6.0,16.0,40,0.00,,BKN018,0.00,VWS V14.01,2015-07-29 23:07:00,
2015-07-29 18:12:00,81.1,52.4,29.73,West,270,10.0,22.0,37,0.00,,BKN018,0.00,VWS V14.01,2015-07-29 23:12:00,
2015-07-29 18:17:00,81.1,53.8,29.74,West,269,15.0,22.0,39,0.00,,BKN018,0.00,VWS V14.01,2015-07-29 23:17:00,
2015-07-29 18:22:00,81.1,54.5,29.74,West,276,1.0,22.0,40,0.00,,BKN018,0.00,VWS V14.01,2015-07-29 23:22:00,
2015-07-29 18:27:00,80.7,54.2,29.74,WNW,295,12.0,22.0,40,0.00,,BKN018,0.00,VWS V14.01,2015-07-29 23:27:00,
2015-07-29 18:32:00,80.7,54.2,29.73,WNW,286,5.0,10.0,40,0.00,,BKN018,0.00,VWS V14.01,2015-07-29 23:32:00,
2015-07-29 18:37:00,80.5,54.0,29.73,West,262,3.0,16.0,40,0.00,,BKN018,0.00,VWS V14.01,2015-07-29 23:37:00,
2015-07-29 18:42:00,80.5,54.7,29.73,West,273,3.0,16.0,41,0.00,,BKN018,0.00,VWS V14.01,2015-07-29 23:42:00,
2015-07-29 18:47:00,80.3,55.8,29.73,West,270,7.0,16.0,43,0.00,,BKN018,0.00,VWS V14.01,2015-07-29 23:47:00,
2015-07-29 18:52:00,80.3,55.8,29.73,WNW,293,8.0,16.0,43,0.00,,BKN018,0.00,VWS V14.01,2015-07-29 23:52:00,
2015-07-29 18:57:00,80.3,55.1,29.73,WNW,290,9.0,16.0,42,0.00,,BKN018,0.00,VWS V14.01,2015-07-29 23:57:00,
2015-07-29 19:02:00,80.1,55.0,29.73,West,270,2.0,12.0,42,0.00,,BKN018,0.00,VWS V14.01,2015-07-30 00:02:00,
2015-07-29 19:07:00,79.8,55.3,29.73,West,271,7.0,14.0,43,0.00,,BKN018,0.00,VWS V14.01,2015-07-30 00:07:00,
2015-07-29 19:12:00,79.8,56.0,29.73,West,270,6.0,14.0,44,0.00,,BKN018,0.00,VWS V14.01,2015-07-30 00:12:00,
2015-07-29 19:17:00,79.4,55.0,29.73,West,267,0.0,14.0,43,0.00,,BKN018,0.00,VWS V14.01,2015-07-30 00:17:00,
2015-07-29 19:22:00,79.2,55.4,29.73,West,270,7.0,14.0,44,0.00,,BKN018,0.00,VWS V14.01,2015-07-30 00:22:00,
2015-07-29 19:27:00,79.0,55.2,29.73,West,270,8.0,14.0,44,0.00,,BKN018,0.00,VWS V14.01,2015-07-30 00:27:00,
2015-07-29 19:32:00,78.8,55.1,29.73,West,270,3.0,10.0,44,0.00,,BKN018,0.00,VWS V14.01,2015-07-30 00:32:00,
2015-07-29 19:37:00,78.5,54.8,29.73,West,270,3.0,10.0,44,0.00,,BKN018,0.00,VWS V14.01,2015-07-30 00:37:00,
2015-07-29 19:42:00,78.3,55.8,29.73,West,266,3.0,10.0,46,0.00,,BKN018,0.00,VWS V14.01,2015-07-30 00:42:00,
2015-07-29 19:52:00,77.6,56.4,29.73,WSW,246,0.0,10.0,48,0.00,,BKN018,0.00,VWS V14.01,2015-07-30 00:52:00,
2015-07-29 19:57:00,77.2,56.0,29.73,WSW,252,2.0,10.0,48,0.00,,BKN018,0.00,VWS V14.01,2015-07-30 00:57:00,
2015-07-29 20:02:00,76.8,56.2,29.74,West,262,0.0,3.0,49,0.00,,BKN018,0.00,VWS V14.01,2015-07-30 01:02:00,
2015-07-29 20:07:00,76.7,55.5,29.74,West,262,0.0,7.0,48,0.00,,BKN018,0.00,VWS V14.01,2015-07-30 01:07:00,
2015-07-29 20:12:00,76.3,55.8,29.74,WSW,257,0.0,7.0,49,0.00,,BKN018,0.00,VWS V14.01,2015-07-30 01:12:00,
2015-07-29 20:18:00,76.0,55.5,29.74,West,270,6.0,7.0,49,0.00,,BKN018,0.00,VWS V14.01,2015-07-30 01:18:00,
2015-07-29 20:23:00,75.4,55.5,29.74,West,270,2.0,7.0,50,0.00,,BKN018,0.00,VWS V14.01,2015-07-30 01:23:00,